When you browse on this site, cookies collect data to enhance your experience and personalize the content and advertising you see.
Visit our Privacy Policy to learn more. By continuing to use the site, you agree to this use of cookies and data.
  • In Czech Republic
  • List of Countries
  • For 7 days
  • Water Temperature
  • Satellite Maps
  • Weather Map
  • Weather Widgets
  • user-avatar
    Login

    Hourly Weather Warwick

    Today, 18 February, Monday

    Time Temperature Precipitation Wind Pressure Humidity
    00:00 0°C° 0.3 mm 1 mps 761 mmHg 69%
    01:00 0°C° 0 mm 1 mps 760 mmHg 74%
    02:00 0°C° 0.9 mm 1 mps 759 mmHg 80%
    03:00 -3°C° 0.9 mm 2 mps 759 mmHg 86%
    04:00 -3°C° 0.9 mm 2 mps 758 mmHg 92%
    05:00 -3°C° 0.9 mm 2 mps 757 mmHg 93%
    06:00 -2°C° 0.9 mm 2 mps 757 mmHg 93%
    07:00 -3°C° 0 mm 2 mps 757 mmHg 93%
    08:00 -2°C° 0.3 mm 2 mps 756 mmHg 92%
    09:00 -2°C° 0.3 mm 2 mps 756 mmHg 91%
    10:00 -2°C° 0.3 mm 3 mps 755 mmHg 90%
    11:00 -1°C° 0.1 mm 2 mps 755 mmHg 88%
    12:00 +1°C° 0.1 mm 2 mps 755 mmHg 86%
    13:00 +3°C° 0.1 mm 1 mps 754 mmHg 85%
    14:00 +3°C° 0.1 mm 1 mps 755 mmHg 85%
    15:00 +3°C° 0.1 mm 1 mps 755 mmHg 86%
    16:00 +3°C° 0.1 mm 1 mps 756 mmHg 87%
    17:00 +1°C° 0.1 mm 2 mps 757 mmHg 87%
    18:00 0°C° 0.1 mm 3 mps 758 mmHg 87%
    19:00 -2°C° 0.1 mm 4 mps 760 mmHg 87%
    20:00 -4°C° 0 mm 4 mps 761 mmHg 83%
    21:00 -5°C° 0 mm 4 mps 762 mmHg 78%
    22:00 -7°C° 0 mm 5 mps 763 mmHg 74%
    23:00 -8°C° 0 mm 5 mps 764 mmHg 72%

    Tomorrow, 19 February, Tuesday

    Time Temperature Precipitation Wind Pressure Humidity
    00:00 -10°C° 0 mm 5 mps 765 mmHg 71%
    01:00 -10°C° 0 mm 4 mps 766 mmHg 69%
    02:00 -10°C° 0 mm 4 mps 767 mmHg 71%
    03:00 -10°C° 0 mm 4 mps 767 mmHg 72%
    04:00 -11°C° 0 mm 4 mps 768 mmHg 74%
    05:00 -10°C° 0 mm 3 mps 769 mmHg 73%
    06:00 -10°C° 0 mm 3 mps 770 mmHg 73%
    07:00 -10°C° 0 mm 3 mps 770 mmHg 73%
    08:00 -9°C° 0 mm 3 mps 771 mmHg 67%
    09:00 -7°C° 0 mm 3 mps 771 mmHg 61%
    10:00 -6°C° 0 mm 3 mps 772 mmHg 55%
    11:00 -5°C° 0 mm 3 mps 772 mmHg 53%
    12:00 -4°C° 0 mm 3 mps 772 mmHg 51%
    13:00 -2°C° 0 mm 3 mps 772 mmHg 49%
    14:00 -2°C° 0 mm 3 mps 772 mmHg 50%
    15:00 -2°C° 0 mm 3 mps 772 mmHg 50%
    16:00 -3°C° 0 mm 4 mps 772 mmHg 51%
    17:00 -4°C° 0 mm 3 mps 773 mmHg 56%
    18:00 -5°C° 0 mm 3 mps 773 mmHg 61%
    19:00 -7°C° 0 mm 3 mps 774 mmHg 66%
    20:00 -7°C° 0 mm 3 mps 774 mmHg 67%
    21:00 -7°C° 0 mm 3 mps 774 mmHg 68%
    22:00 -8°C° 0 mm 3 mps 775 mmHg 68%
    23:00 -8°C° 0 mm 3 mps 775 mmHg 68%

    Day after tomorrow, 20 February, Wednesday

    Time Temperature Precipitation Wind Pressure Humidity
    00:00 -8°C° 0 mm 3 mps 775 mmHg 67%
    01:00 -8°C° 0 mm 3 mps 775 mmHg 67%
    02:00 -7°C° 0 mm 2 mps 775 mmHg 67%
    03:00 -7°C° 0 mm 2 mps 775 mmHg 67%
    04:00 -6°C° 0 mm 1 mps 775 mmHg 67%
    05:00 -6°C° 0 mm 1 mps 775 mmHg 67%
    06:00 -7°C° 0 mm 1 mps 775 mmHg 67%
    07:00 -7°C° 0 mm 1 mps 775 mmHg 67%
    08:00 -4°C° 0 mm 1 mps 776 mmHg 61%
    09:00 -4°C° 0 mm 0 mps 776 mmHg 55%
    10:00 -3°C° 0 mm 0 mps 776 mmHg 49%
    11:00 -2°C° 0 mm 0 mps 775 mmHg 47%
    12:00 0°C° 0 mm 1 mps 775 mmHg 46%
    13:00 0°C° 0 mm 1 mps 774 mmHg 44%
    14:00 0°C° 0 mm 1 mps 774 mmHg 47%
    15:00 -2°C° 0 mm 2 mps 774 mmHg 50%
    16:00 -2°C° 0 mm 2 mps 773 mmHg 52%
    17:00 -3°C° 0 mm 2 mps 773 mmHg 56%
    18:00 -3°C° 0 mm 2 mps 773 mmHg 60%
    19:00 -3°C° 0 mm 2 mps 773 mmHg 64%
    20:00 -3°C° 0 mm 2 mps 772 mmHg 66%
    21:00 -2°C° 0 mm 2 mps 771 mmHg 69%
    22:00 -2°C° 0 mm 3 mps 771 mmHg 71%
    23:00 -1°C° 0.2 mm 3 mps 769 mmHg 77%

    21 February, Thursday

    Time Temperature Precipitation Wind Pressure Humidity
    00:00 -2°C° 0.2 mm 4 mps 768 mmHg 83%
    01:00 -1°C° 0.2 mm 4 mps 767 mmHg 89%
    02:00 0°C° 1.4 mm 4 mps 765 mmHg 91%
    03:00 0°C° 1.4 mm 4 mps 763 mmHg 93%
    04:00 +1°C° 1.4 mm 4 mps 762 mmHg 95%
    05:00 +3°C° 1.2 mm 5 mps 760 mmHg 95%
    06:00 +5°C° 1.2 mm 5 mps 759 mmHg 95%
    07:00 +5°C° 1.2 mm 6 mps 757 mmHg 96%
    08:00 +7°C° 0.1 mm 6 mps 756 mmHg 96%
    09:00 +7°C° 0.1 mm 5 mps 755 mmHg 96%
    10:00 +8°C° 0.1 mm 5 mps 754 mmHg 96%
    11:00 +8°C° 0 mm 5 mps 754 mmHg 91%
    12:00 +9°C° 0 mm 6 mps 753 mmHg 86%
    13:00 +10°C° 0 mm 6 mps 753 mmHg 82%
    14:00 +9°C° 0 mm 6 mps 753 mmHg 79%
    15:00 +9°C° 0 mm 5 mps 754 mmHg 77%
    16:00 +10°C° 0 mm 4 mps 754 mmHg 75%
    17:00 +7°C° 0 mm 4 mps 755 mmHg 77%
    18:00 +5°C° 0 mm 4 mps 756 mmHg 79%
    19:00 +3°C° 0 mm 4 mps 757 mmHg 81%
    20:00 +1°C° 0 mm 4 mps 758 mmHg 80%
    21:00 +1°C° 0 mm 4 mps 759 mmHg 79%
    22:00 0°C° 0 mm 4 mps 759 mmHg 78%
    23:00 0°C° 0 mm 4 mps 760 mmHg 77%

    22 February, Friday

    Time Temperature Precipitation Wind Pressure Humidity
    00:00 0°C° 0 mm 4 mps 760 mmHg 76%
    01:00 -1°C° 0 mm 4 mps 761 mmHg 76%
    02:00 -1°C° 0 mm 4 mps 762 mmHg 77%
    03:00 -1°C° 0 mm 3 mps 763 mmHg 79%
    04:00 -1°C° 0 mm 3 mps 764 mmHg 80%
    05:00 -1°C° 0 mm 2 mps 764 mmHg 81%
    06:00 -2°C° 0 mm 2 mps 765 mmHg 82%
    07:00 -2°C° 0 mm 2 mps 766 mmHg 83%
    08:00 -1°C° 0 mm 2 mps 767 mmHg 76%
    09:00 +1°C° 0 mm 3 mps 767 mmHg 69%
    10:00 +2°C° 0 mm 3 mps 768 mmHg 63%
    11:00 +3°C° 0 mm 3 mps 768 mmHg 61%
    12:00 +5°C° 0 mm 2 mps 768 mmHg 58%
    13:00 +6°C° 0 mm 2 mps 768 mmHg 56%
    14:00 +6°C° 0 mm 2 mps 768 mmHg 58%
    15:00 +6°C° 0 mm 2 mps 768 mmHg 60%
    16:00 +6°C° 0 mm 2 mps 768 mmHg 62%
    17:00 +5°C° 0 mm 2 mps 768 mmHg 68%
    18:00 +3°C° 0 mm 2 mps 769 mmHg 74%
    19:00 +2°C° 0 mm 2 mps 769 mmHg 80%
    20:00 +1°C° 0 mm 2 mps 770 mmHg 81%
    21:00 -1°C° 0 mm 2 mps 770 mmHg 82%
    22:00 -1°C° 0 mm 2 mps 770 mmHg 83%
    23:00 -1°C° 0 mm 2 mps 770 mmHg 84%

    23 February, Saturday

    Time Temperature Precipitation Wind Pressure Humidity
    00:00 -2°C° 0 mm 2 mps 770 mmHg 85%
    01:00 0°C° 0 mm 1 mps 770 mmHg 86%
    02:00 0°C° 0 mm 1 mps 770 mmHg 85%
    03:00 0°C° 0 mm 1 mps 770 mmHg 84%
    04:00 0°C° 0 mm 1 mps 770 mmHg 84%
    05:00 -1°C° 0 mm 0 mps 770 mmHg 83%
    06:00 -1°C° 0 mm 0 mps 770 mmHg 82%
    07:00 -1°C° 0 mm 0 mps 770 mmHg 81%
    08:00 +1°C° 0 mm 0 mps 770 mmHg 74%
    09:00 +4°C° 0 mm 1 mps 770 mmHg 67%
    10:00 +5°C° 0 mm 1 mps 770 mmHg 60%
    11:00 +5°C° 0 mm 2 mps 770 mmHg 58%
    12:00 +6°C° 0 mm 2 mps 769 mmHg 57%
    13:00 +7°C° 0 mm 2 mps 768 mmHg 55%
    14:00 +5°C° 0 mm 3 mps 768 mmHg 57%
    15:00 +5°C° 0 mm 3 mps 767 mmHg 60%
    16:00 +4°C° 0 mm 3 mps 767 mmHg 63%
    17:00 +4°C° 0 mm 2 mps 766 mmHg 70%
    18:00 +3°C° 0 mm 2 mps 766 mmHg 78%
    19:00 +2°C° 0 mm 2 mps 766 mmHg 86%
    20:00 +2°C° 0 mm 2 mps 766 mmHg 87%
    21:00 +4°C° 0 mm 1 mps 765 mmHg 88%
    22:00 +4°C° 0 mm 1 mps 765 mmHg 89%
    23:00 +4°C° 0 mm 1 mps 764 mmHg 90%
    Show more